This demonstration page uses our WeatherBlox Daily Observations layout. Learn more.

Left ArrowRight Arrow

36.19886, -115.1175

Hourly Observations for November 29, 2015

Temp ( °F °C ) Dew Point ( °F °C ) Humidity (%) Winds ( mph kmh ) Pressure ( in mb ) Visibility ( mi km ) Precip ( " mm )
12:53 am 00:53 Clear 37 2.8 12 -11.1 36 36 N 6 9 30.20 1023 10 16 0.00 0.00
1:53 am 01:53 Clear 36 2.2 12 -11.1 37 37 WNW 3 6 30.22 1023 10 16 0.00 0.00
2:53 am 02:53 Clear 34 1.1 14 -10 44 44 NW 8 13 30.22 1023 10 16 0.00 0.00
3:53 am 03:53 Clear 36 2.2 13 -10.6 39 39 NW 7 11 30.21 1023 10 16 0.00 0.00
4:53 am 04:53 Clear 32 0 12 -11.1 43 43 NNW 7 11 30.22 1023 10 16 0.00 0.00
5:53 am 05:53 Clear 33 0.6 13 -10.6 43 43 WNW 6 9 30.24 1024 10 16 0.00 0.00
6:53 am 06:53 Sunny 32 0 13 -10.6 45 45 N 6 9 30.26 1025 10 16 0.00 0.00
7:53 am 07:53 Sunny 38 3.3 13 -10.6 36 36 N 8 13 30.25 1025 10 16 0.00 0.00
8:53 am 08:53 Sunny 42 5.6 14 -10 32 32 NNE 5 7 30.27 1025 10 16 0.00 0.00
9:53 am 09:53 Sunny 44 6.7 14 -10 30 30 ENE 5 7 30.27 1025 10 16 0.00 0.00
10:53 am 10:53 Sunny 44 6.7 14 -10 30 30 SE 8 13 30.26 1025 10 16 0.00 0.00
11:53 am 11:53 Sunny 46 7.8 14 -10 27 27 VRB 6 9 30.23 1024 10 16 0.00 0.00
12:53 pm 12:53 Sunny 48 8.9 14 -10 25 25 Calm 30.22 1023 10 16 0.00 0.00
1:53 pm 13:53 Sunny 49 9.4 14 -10 25 25 E 5 7 30.20 1023 10 16 0.00 0.00
2:53 pm 14:53 Sunny 49 9.4 14 -10 25 25 SSE 8 13 30.20 1023 10 16 0.00 0.00
3:53 pm 15:53 Sunny 48 8.9 14 -10 25 25 ESE 7 11 30.22 1024 10 16 0.00 0.00
4:53 pm 16:53 Clear 47 8.3 14 -10 26 26 S 3 6 30.23 1024 10 16 0.00 0.00
5:53 pm 17:53 Clear 44 6.7 14 -10 30 30 Calm 30.24 1024 10 16 0.00 0.00
6:53 pm 18:53 Clear 43 6.1 16 -8.9 34 34 Calm 30.26 1025 10 16 0.00 0.00
7:53 pm 19:53 Clear 40 4.4 17 -8.3 40 40 N 3 6 30.26 1025 10 16 0.00 0.00
8:53 pm 20:53 Clear 38 3.3 18 -7.8 44 44 WNW 5 7 30.26 1025 10 16 0.00 0.00
9:53 pm 21:53 Clear 37 2.8 17 -8.3 44 44 WNW 6 9 30.27 1025 10 16 0.00 0.00
10:53 pm 22:53 Clear 36 2.2 16 -8.9 44 44 NNW 5 7 30.27 1025 10 16 0.00 0.00
11:53 pm 23:53 Clear 34 1.1 14 -10 44 44 SSE 3 6 30.28 1025 10 16 0.00 0.00

Powered by AerisWeather